Home > Weather > Kielce > Past weeks

Flag for Poland Weather for the Past 2 Weeks in Kielce, Poland

Now
45 °F

Partly sunny.


Feels Like: 42 °F
Forecast: 39 / 50 °F
Wind: 7 mph from South

Location: Kielce

Current Time: Feb 7, 2016 at 12:48:28 PM

Latest Report: Feb 7, 2016 at 12:00 PM


Visibility: 19 mi

Pressure: 29.90 "Hg

Humidity: 59%

Dew point: 31 °F

Location of KielceLocation

Historic Weather in Kielce — Graph

°F

Kielce Temperature Yesterday

Maximum temperature yesterday: 41 °F (at 3:00 PM)
Minimum temperature yesterday: 26 °F (at 3:00 AM)
Average temperature yesterday: 33 °F

High & Low Weather Summary for the Past Weeks

 TemperatureHumidityPressure
High53 °F (Jan 30, 3:00 PM)100% (Jan 24, 8:00 PM)30.52 "Hg (Jan 24, 8:00 PM)
Low6 °F (Jan 24, 12:00 AM)49% (Jan 30, 3:00 PM)29.64 "Hg (Jan 31, 6:00 AM)
Average36 °F84%30.13 "Hg
* Reported Jan 23 11:00 AM — Feb 7 11:00 AM, Kielce, Weather by CustomWeather, © 2016

Note: Actual official high and low records may vary slightly from our data, if they occured in-between our weather recording intervals... More about our weather records

Advertising

Kielce Weather History for the Previous 24 Hours

 ConditionsComfort  
Time TempWeatherWind HumidityBarometerVisibility
11:00 AM
Sun, Feb 7
44 °FPassing clouds.6 mph64%29.93 "Hg19 mi
10:00 AM40 °FPassing clouds.6 mph69%29.96 "Hg14 mi
9:00 AM36 °FPassing clouds.3 mph79%29.98 "Hg11 mi
8:00 AM33 °FPassing clouds.3 mph86%30.00 "Hg6 mi
7:00 AM32 °FFog.3 mph89%30.01 "Hg5 mi
6:00 AM31 °FFog.3 mph91%30.02 "Hg4 mi
5:00 AM31 °FFog.3 mph91%30.04 "Hg4 mi
4:00 AM31 °FFog.3 mph92%30.06 "Hg4 mi
3:00 AM31 °FFog.2 mph92%30.08 "Hg4 mi
1:00 AM31 °FFog.2 mph90%30.11 "Hg4 mi
9:00 PM
Sat, Feb 6
32 °FOvercast.2 mph85%30.16 "Hg6 mi
8:00 PM33 °FPassing clouds.2 mph83%30.16 "Hg7 mi
7:00 PM34 °FPassing clouds.3 mph83%30.17 "Hg9 mi
6:00 PM35 °FFog.3 mph84%30.19 "Hg5 mi
5:00 PM36 °FFog.2 mph83%30.19 "Hg5 mi
4:00 PM39 °FOvercast.3 mph78%30.19 "Hg9 mi
3:00 PM41 °FOvercast.5 mph77%30.20 "Hg8 mi
2:00 PM40 °FOvercast.3 mph80%30.21 "Hg6 mi
1:00 PM37 °FFog.3 mph83%30.24 "Hg6 mi
12:00 PM36 °FFog.2 mph83%30.26 "Hg6 mi
Weather by CustomWeather, © 2016

See weather overviewHow to use our weather pages